Track STARLINK 1023 now! 10-day predictions STARLINK 1023 is classified as:
1 44728U 19074R 21025.19653908 .00000639 00000-0 61804-4 0 9998 2 44728 53.0561 299.0792 0002202 74.4493 285.6739 15.06405628 67147